KB1LTW-13 Weather Reports


Display with metric or nautical units.
time (UTC)temp
F
wind
direction
speed
MPH
gust
MPH
rain 1hr
in
rain 24hr
in
rain mn
in
humidity
%
barometer
mb
20260504151123 63 96 1.0 4.0 0.00 0.00 0.00 34 1013.1
20260504150129 62 99 0.0 2.0 0.00 0.00 0.00 35 1013.2
20260504141124 60 138 3.0 6.0 0.00 0.00 0.00 36 1013.7
20260504140130 60 64 1.0 6.0 0.00 0.00 0.00 36 1013.7
20260504130132 56 82 1.0 4.0 0.00 0.00 0.00 42 1014.1
20260504120117 51 89 2.0 3.0 0.00 0.00 0.00 50 1014.4
20260504110123 46 104 0.0 1.0 0.00 0.00 0.00 58 1014.7
20260504100126 43 99 0.0 1.0 0.00 0.00 0.00 62 1013.9
20260504090126 43 0.0 0.0 0.00 0.00 0.00 62 1013.6
20260504081124 43 107 0.0 1.0 0.00 0.00 0.00 63 1013.5
20260504080120 42 0.0 0.0 0.00 0.00 0.00 66 1013.6
20260504070120 42 0.0 0.0 0.00 0.00 0.00 64 1013.6
20260504060123 43 0.0 0.0 0.00 0.00 0.00 63 1013.5
20260504050144 41 0.0 0.0 0.00 0.00 0.00 60 1013.6
20260504045130 41 0.0 0.0 0.00 0.00 0.00 63 1013.9
20260504044120 41 0.0 0.0 0.00 0.00 0.00 57 1013.9
20260504043117 41 0.0 0.0 0.00 0.00 0.00 59 1013.9
20260504042123 40 0.0 0.0 0.00 0.00 0.00 58 1013.8
20260504041122 40 0.0 0.0 0.00 0.00 0.00 63 1013.7
20260504040144 40 0.0 0.0 0.00 0.00 0.00 61 1013.6
20260504035131 41 0.0 0.0 0.00 0.00 0.00 62 1013.7
20260504034121 41 0.0 0.0 0.00 0.00 0.00 57 1013.7
20260504033120 42 0.0 0.0 0.00 0.00 0.00 51 1013.7
20260504032126 42 0.0 0.0 0.00 0.00 0.00 51 1013.5
20260504031124 42 0.0 0.0 0.00 0.00 0.00 49 1013.5
20260504030146 42 0.0 0.0 0.00 0.00 0.00 50 1013.5
20260504025132 42 0.0 0.0 0.00 0.00 0.00 50 1013.5
20260504024122 42 0.0 0.0 0.00 0.00 0.00 55 1013.7
20260504023123 42 0.0 0.0 0.00 0.00 0.00 51 1013.4
20260504022123 42 0.0 0.0 0.00 0.00 0.00 53 1013.6
20260504021117 42 0.0 0.0 0.00 0.00 0.00 54 1013.4
20260504020126 42 0.0 0.0 0.00 0.00 0.00 51 1013.5
20260504015116 43 0.0 0.0 0.00 0.00 0.00 52 1013.4
20260504014123 43 0.0 0.0 0.00 0.00 0.00 50 1013.4
20260504013126 44 0.0 0.0 0.00 0.00 0.00 51 1013.1
20260504012125 44 0.0 0.0 0.00 0.00 0.00 52 1013.0
20260504011120 45 0.0 0.0 0.00 0.00 0.00 52 1013.1
20260504010116 45 0.0 0.0 0.00 0.00 0.00 47 1012.8
20260504005117 45 0.0 0.0 0.00 0.00 0.00 46 1012.5
20260504004124 45 0.0 0.0 0.00 0.00 0.00 48 1012.6
20260504003123 46 0.0 0.0 0.00 0.00 0.00 46 1012.4
20260504002125 46 0.0 0.0 0.00 0.00 0.00 42 1012.3
20260504001115 47 0.0 0.0 0.00 0.00 0.00 41 1012.1
20260504000117 48 0.0 0.0 0.00 0.00 0.00 39 1011.7
20260503235118 49 0.0 0.0 0.00 0.00 0.00 39 1011.7
20260503234145 50 105 0.0 1.0 0.00 0.00 0.00 36 1011.5
20260503233124 51 104 0.0 3.0 0.00 0.00 0.00 34 1011.6
20260503232115 51 0.0 2.0 0.00 0.00 0.00 35 1011.4
20260503231116 51 114 1.0 2.0 0.00 0.00 0.00 33 1011.5
20260503230118 51 0.0 2.0 0.00 0.00 0.00 36 1011.4
20260503225119 52 109 1.0 2.0 0.00 0.00 0.00 33 1011.4
20260503224127 52 102 0.0 3.0 0.00 0.00 0.00 34 1011.4
20260503223122 52 120 3.0 8.0 0.00 0.00 0.00 34 1011.4
20260503222117 52 124 1.0 3.0 0.00 0.00 0.00 35 1011.4
20260503221117 52 100 1.0 3.0 0.00 0.00 0.00 34 1011.4
20260503220119 53 104 3.0 7.0 0.00 0.00 0.00 33 1011.2
20260503215120 52 100 3.0 7.0 0.00 0.00 0.00 33 1011.4
20260503214122 52 116 2.0 4.0 0.00 0.00 0.00 34 1011.3
20260503213118 53 101 1.0 6.0 0.00 0.00 0.00 34 1011.1
20260503212118 53 108 0.0 7.0 0.00 0.00 0.00 35 1011.1
20260503211118 52 91 2.0 11.0 0.00 0.00 0.00 35 1011.2
20260503210120 52 100 2.0 6.0 0.00 0.00 0.00 36 1011.2
20260503205121 53 93 3.0 8.0 0.00 0.00 0.00 34 1011.3
20260503204117 52 99 2.0 8.0 0.00 0.00 0.00 35 1011.4
20260503203123 50 114 2.0 9.0 0.00 0.00 0.00 36 1011.1
20260503202139 50 103 3.0 6.0 0.00 0.00 0.00 37 1011.4
20260503201120 49 88 2.0 11.0 0.00 0.00 0.00 36 1011.2
20260503200121 50 139 4.0 7.0 0.00 0.00 0.00 37 1011.3
20260503195123 50 138 5.0 10.0 0.00 0.00 0.00 37 1011.2
20260503194118 50 111 2.0 4.0 0.00 0.00 0.00 39 1011.3
20260503193124 51 104 4.0 7.0 0.00 0.00 0.00 34 1011.1
20260503192120 49 97 2.0 8.0 0.00 0.00 0.00 37 1011.4
20260503191120 51 103 5.0 15.0 0.00 0.00 0.00 35 1011.2
20260503190122 52 107 6.0 15.0 0.00 0.00 0.00 33 1011.2
20260503185124 52 117 3.0 9.0 0.00 0.00 0.00 34 1011.0
20260503184139 50 102 3.0 10.0 0.00 0.00 0.00 35 1011.4
20260503183125 51 115 2.0 9.0 0.00 0.00 0.00 37 1011.3
20260503182120 50 113 2.0 8.0 0.00 0.00 0.00 35 1011.2
20260503181121 50 113 3.0 6.0 0.00 0.00 0.00 37 1011.4
20260503180124 50 131 3.0 8.0 0.00 0.00 0.00 36 1011.0
20260503175125 51 126 4.0 10.0 0.00 0.00 0.00 35 1011.1
20260503174119 51 103 3.0 6.0 0.00 0.00 0.00 35 1011.1
20260503173121 49 175 4.0 6.0 0.00 0.00 0.00 38 1011.2
20260503172202 49 122 2.0 10.0 0.00 0.00 0.00 36 1011.3
20260503171122 49 124 3.0 6.0 0.00 0.00 0.00 40 1011.1
20260503170125 49 118 2.0 17.0 0.00 0.00 0.00 41 1011.4
20260503160138 48 276 2.0 4.0 0.00 0.00 0.00 47 1011.4